Regional Weather Roundup
Issued by NWS Green Bay, WI

Home | Current Version | Previous Version | Text Only | Print | Product List | Glossary On
Versions: 1 2 3 4 5 6 7 8 9 10 11 12 13 14 15 16 17 18 19 20 21 22 23 24 25 26 27 28 29 30 31 32 33 34 35 36 37 38 39 40 41 42 43 44 45 46 47 48 49 50
000
ASUS43 KGRB 311910
RWRGRB

NORTH-CENTRAL AND NORTHEAST WISCONSIN REGIONAL WEATHER ROUNDUP
NATIONAL WEATHER SERVICE GREEN BAY WI
200 PM CDT THU JUL 31 2014

WIZ005-009-010>012-018-019-312000-
NORTH CENTRAL WISCONSIN

CITY           SKY/WX    TMP DP  RH WIND       PRES   REMARKS
IRONWOOD       NOT AVBL
MANITOWISH WTR MOSUNNY   73  51  44 NW10      29.99S
ARBOR VITAE    MOSUNNY   79  51  36 NW6       29.99S
EAGLE RIVER    PTSUNNY   74  45  35 NW9       29.99R
LAND O LAKES   MOSUNNY   73  47  40 NW8       30.00S
RHINELANDER    MOSUNNY   75  49  39 VRB6      30.00S
PHILLIPS       MOSUNNY   76  56  49 W5        29.99S
ANTIGO         MOSUNNY   75  51  42 NW14      29.99S
TOMAHAWK       MOSUNNY   75  53  46 NW10      30.00S
MERRILL        MOSUNNY   77  57  50 NW10      29.98S
$$

WIZ013-073-312000-
NORTHEAST WISCONSIN

CITY           SKY/WX    TMP DP  RH WIND       PRES   REMARKS
IRON MOUNTAIN  MOSUNNY   76  49  38 W8        29.94F
MARINETTE      PTSUNNY   75  54  46 W6        29.93F
OCONTO         SUNNY     80  51  36 W12       29.95S
$$

WIZ017-030-035>037-045-312000-
CENTRAL WISCONSIN

CITY           SKY/WX    TMP DP  RH WIND       PRES   REMARKS
MEDFORD        MOSUNNY   75  62  64 W12       30.00F
WAUSAU         MOSUNNY   79  56  45 NW13      29.97F
MOSINEE        NOT AVBL
MARSHFIELD     MOSUNNY   79  60  52 W13       30.00S
WISC RAPIDS    MOSUNNY   80  58  46 W10G20    30.01S
STEVENS POINT  MOSUNNY   76  58  52 W10G20    29.99S
WAUPACA        PTSUNNY   78  62  57 NW3       29.98R
SHAWANO        PTSUNNY   80  53  38 NW8       29.96S
CLINTONVILLE   PTSUNNY   81  54  39 NW7       29.96S
$$

WIZ038-039-048-051-312000-
FOX VALLEY

CITY           SKY/WX    TMP DP  RH WIND       PRES   REMARKS
NWS GREEN BAY  MOSUNNY   78  61  55 W6        29.96F
APPLETON       PTSUNNY   77  59  53 SW14G20   29.98F
OSHKOSH        MOSUNNY   78  63  59 S7        29.97F
FOND DU LAC    PTSUNNY   78  58  49 NW9       29.99S
$$

WIZ022-050-052-312000-
EAST CENTRAL WISCONSIN

CITY           SKY/WX    TMP DP  RH WIND       PRES   REMARKS
STURGEON BAY   SUNNY     75  52  43 W7        29.97S
MANITOWOC      PTSUNNY   79  61  53 W10       29.97F
SHEBOYGAN      MOSUNNY   79  56  45 W9        29.98F
$$

LMZ563-521-522-541>543-312000-
LAKESHORE

STATION/POSITION TIME  TEMP    WIND        PRES    VSBY  WAVE
                       AIR SEA DIR/SP/G                  HT/PER
                 (UTC) (F)     (DEG/KT/KT) (MB)    (MI)  (FT/S)
SHEBOYGAN LKSHOR 1900   66     170/ 14/ 14 1015.4F
KEWAUNEE LKSHORE 1900   59     170/ 10/ 10 1014.5R
ALGOMA MARINA    1800          220/  7/  8   N/A
TWO RIVERS CG    1800   61 63                N/A       6   1
NORTHPORT PIER   1900   71     160/  4/  7 1013.9F
N MID LAKE BUOY  1900   58 55  200/ 12/ 14 1013.7F         1/ 2
S GREEN BAY BUOY 1900   70 68  170/  6     1015.4S
SISTER BAY LKSHO 1900   73     270/  7/  7   N/A
CHAMBERS ISLAND  1900   72     180/  4/ 12 1014.2S
MENOMINEE LKSHOR 1900   71     160/  7/ 12 1014.5S
$$



USA.gov is the U.S. government's official web portal to all federal, state and local government web resources and services.